Home   Weather   Linköping   Past weeks

Flag for Sweden Past Weather in Linköping, Sweden — Yesterday and Last 2 Weeks

Now
32 °F

Mostly cloudy.


Feels Like: 25 °F
Forecast: 46 / 50 °F
Wind: 8 mph from Southwest

Location: Linkoping / Saab

Current Time: Dec 7, 2016 at 9:44:36 am

Latest Report: Dec 7, 2016 at 9:20 am


Visibility: N/A

Pressure: 30.21 "Hg

Humidity: 93%

Dew Point: 30 °F

Location of LinköpingLocation

Past Weather in Linköping — Graph

°F

Linköping Temperature Yesterday

Maximum temperature yesterday: 32 °F (at 12:20 am)
Minimum temperature yesterday: 25 °F (at 5:20 pm)
Average temperature yesterday: 29 °F

High & Low Weather Summary for the Past Weeks

 TemperatureHumidityPressure
High48 °F (Nov 22, 9:20 am)100% (Nov 22, 8:20 am)30.45 "Hg (Nov 22, 8:20 am)
Low14 °F (Dec 3, 11:20 pm)44% (Nov 27, 5:20 pm)29.47 "Hg (Nov 26, 1:50 pm)
Average36 °F83%29.97 "Hg
* Reported Nov 22 8:20 am — Dec 7 8:20 am, Linköping, Weather by CustomWeather, © 2016

Note: Actual official high and low records may vary slightly from our data, if they occured in-between our weather recording intervals... More about our weather records

Advertising

Linköping Weather History for the Previous 24 Hours

Scroll right to see more
 ConditionsComfort  
Time TempWeatherWind HumidityBarometerVisibility
8:20 am
Wed, Dec 7
30 °FClear.8 mph80%30.24 "Hg10 mi
7:50 am30 °FPassing clouds.6 mph75%30.24 "HgN/A
7:20 am30 °FClear.6 mph75%30.24 "Hg10 mi
6:50 am30 °FClear.8 mph75%30.27 "Hg10 mi
6:20 am30 °FClear.9 mph75%30.27 "Hg10 mi
5:50 am30 °FPassing clouds.9 mph75%30.30 "HgN/A
4:50 am30 °FPassing clouds.8 mph75%30.33 "HgN/A
4:20 am30 °FChilly.7 mph80%30.33 "HgN/A
3:50 am28 °FChilly.9 mph86%30.33 "HgN/A
3:20 am28 °FChilly.10 mph86%30.36 "HgN/A
2:50 am28 °FChilly.9 mph86%30.36 "HgN/A
2:20 am28 °FChilly.5 mph86%30.39 "HgN/A
1:50 am27 °FChilly.3 mph93%30.39 "HgN/A
1:20 am27 °FChilly.3 mph93%30.39 "HgN/A
12:50 am27 °FChilly.5 mph93%30.39 "HgN/A
12:20 am27 °FChilly.6 mph93%30.39 "HgN/A
11:50 pm
Tue, Dec 6
27 °FClear.3 mph93%30.42 "Hg10 mi
11:20 pm27 °FPassing clouds.3 mph93%30.42 "HgN/A
10:50 pm27 °FClear.5 mph93%30.42 "Hg10 mi
10:20 pm27 °FClear.5 mph93%30.42 "Hg10 mi
9:50 pm27 °FClear.5 mph93%30.42 "Hg10 mi
9:20 pm27 °FClear.3 mph93%30.45 "Hg10 mi
8:50 pm27 °FClear.3 mph93%30.45 "Hg10 mi
8:20 pm27 °FClear.3 mph93%30.45 "Hg10 mi
7:50 pm25 °FClear.3 mph100%30.45 "Hg10 mi
6:50 pm27 °FClear.2 mph86%30.45 "Hg10 mi
6:20 pm27 °FClear.5 mph93%30.45 "Hg10 mi
5:50 pm27 °FClear.3 mph93%30.42 "Hg10 mi
5:20 pm25 °FClear.2 mph93%30.42 "Hg10 mi
4:50 pm28 °FClear.2 mph86%30.42 "Hg10 mi
4:20 pm28 °FClear.2 mph86%30.42 "Hg10 mi
3:50 pm28 °FClear.No wind86%30.42 "Hg10 mi
3:20 pm28 °FClear.No wind86%30.42 "Hg10 mi
2:50 pm32 °FSunny.2 mph75%30.42 "Hg10 mi
2:20 pm30 °FSunny.5 mph80%30.39 "Hg10 mi
1:50 pm32 °FSunny.5 mph75%30.39 "Hg10 mi
1:20 pm32 °FSunny.5 mph75%30.39 "Hg10 mi
12:50 pm32 °FSunny.5 mph75%30.39 "Hg10 mi
12:20 pm30 °FSunny.5 mph80%30.39 "Hg10 mi
11:50 am30 °FSunny.6 mph80%30.39 "Hg10 mi
11:20 am30 °FSunny.6 mph80%30.36 "Hg10 mi
10:50 am30 °FSunny.6 mph80%30.36 "Hg10 mi
10:20 am30 °FSunny.7 mph80%30.33 "Hg10 mi
9:50 am30 °FSunny.5 mph80%30.33 "Hg10 mi
9:20 am28 °FSunny.3 mph86%30.33 "Hg10 mi
Weather by CustomWeather, © 2016

See weather overviewHow to use our weather pages